DW9918 Weather Reports


Display with metric or nautical units.
time (UTC)temp
F
wind
direction
speed
MPH
gust
MPH
rain 1hr
in
rain 24hr
in
rain mn
in
humidity
%
barometer
mb
20260504211513 62 233 2.0 6.0 0.00 0.00 0.00 76 1016.5
20260504210036 62 227 2.0 3.0 0.00 0.00 0.00 78 1016.5
20260504204532 62 247 0.0 0.0 0.00 0.00 0.00 78 1016.6
20260504203025 62 151 0.0 0.0 0.00 0.00 0.00 76 1016.4
20260504201514 63 150 0.0 0.0 0.00 0.00 0.00 75 1016.2
20260504200014 63 153 0.0 0.0 0.00 0.00 0.00 74 1016.1
20260504194528 63 109 0.0 0.0 0.00 0.00 0.00 73 1016.1
20260504193028 63 108 0.0 1.0 0.00 0.00 0.00 73 1016.1
20260504191525 64 127 0.0 2.0 0.00 0.00 0.00 71 1016.0
20260504190022 64 115 1.0 2.0 0.00 0.00 0.00 72 1015.8
20260504184523 64 121 0.0 2.0 0.00 0.00 0.00 71 1015.9
20260504183018 65 153 1.0 3.0 0.00 0.00 0.00 70 1016.0
20260504181529 65 108 2.0 6.0 0.00 0.00 0.00 70 1016.0
20260504180028 66 104 5.0 8.0 0.00 0.00 0.00 70 1015.9
20260504174526 67 89 4.0 8.0 0.00 0.00 0.00 69 1015.9
20260504173023 67 127 5.0 11.0 0.00 0.00 0.00 67 1015.9
20260504171522 68 109 6.0 9.0 0.00 0.00 0.00 66 1015.9
20260504081512 70 289 5.0 9.0 0.00 0.00 0.00 46 1018.0
20260504050018 55 237 2.0 4.0 0.00 0.00 0.00 70 1017.0
20260504044520 54 223 2.0 3.0 0.00 0.00 0.00 70 1016.9
20260504043015 54 228 1.0 2.0 0.00 0.00 0.00 70 1016.9
20260504041537 54 231 0.0 2.0 0.00 0.00 0.00 70 1016.8
20260504040022 55 212 1.0 3.0 0.00 0.00 0.00 68 1016.8
20260504034523 55 186 2.0 4.0 0.00 0.00 0.00 67 1016.7
20260504033021 55 221 1.0 3.0 0.00 0.00 0.00 68 1016.8
20260504031522 55 218 1.0 3.0 0.00 0.00 0.00 69 1016.8
20260504030017 55 203 1.0 4.0 0.00 0.00 0.00 67 1016.8
20260504024524 55 212 1.0 3.0 0.00 0.00 0.00 68 1016.9
20260504023024 56 180 1.0 3.0 0.00 0.00 0.00 69 1017.0
20260504021508 56 199 0.0 2.0 0.00 0.00 0.00 68 1017.1
20260504020008 56 210 1.0 3.0 0.00 0.00 0.00 68 1017.1
20260504014505 57 246 1.0 3.0 0.00 0.00 0.00 68 1017.1
20260504011503 58 196 1.0 3.0 0.00 0.00 0.00 67 1017.0
20260504010014 58 209 1.0 3.0 0.00 0.00 0.00 67 1017.1
20260504004511 59 208 1.0 4.0 0.00 0.00 0.00 67 1017.1
20260504003005 59 207 2.0 4.0 0.00 0.00 0.00 66 1017.1
20260504001513 60 224 2.0 4.0 0.00 0.00 0.00 66 1017.1
20260504000022 60 248 1.0 5.0 0.00 0.00 0.00 67 1017.1
20260503234521 60 200 2.0 4.0 0.00 0.00 0.00 68 1017.1
20260503233019 61 214 1.0 3.0 0.00 0.00 0.00 67 1017.1
20260503231514 61 236 2.0 5.0 0.00 0.00 0.00 66 1017.2
20260503230028 61 201 1.0 4.0 0.00 0.00 0.00 67 1017.2
20260503224507 61 210 2.0 4.0 0.00 0.00 0.00 69 1017.2
20260503223005 61 175 1.0 2.0 0.00 0.00 0.00 71 1017.3
20260503221524 61 239 1.0 3.0 0.00 0.00 0.00 73 1017.2
20260503220020 60 187 0.0 3.0 0.00 0.00 0.00 75 1017.2
20260503214535 60 157 1.0 3.0 0.00 0.00 0.00 77 1017.2
20260503213014 59 234 0.0 2.0 0.00 0.00 0.00 78 1017.2